Regional Weather Roundup
Issued by NWS Portland, ME

Home | Current Version | Previous Version | Text Only | Print | Product List | Glossary On
Versions: 1 2 3 4 5 6 7 8 9 10 11 12 13 14 15 16 17 18 19 20 21 22 23 24 25 26 27 28 29 30 31 32 33 34 35 36 37 38 39 40 41 42 43 44 45 46 47 48 49 50
000
ASUS41 KGYX 171710
RWRGYX
WEATHER ROUNDUP FOR MAINE AND NEW HAMPSHIRE
NATIONAL WEATHER SERVICE GRAY ME
100 PM EDT WED SEP 17 2014

MEZ002-005-006-010-012-015-018-020-021-024-026-027-029-171800-
MAINE

CITY           SKY/WX    TMP DP  RH WIND       PRES   REMARKS
PORTLAND       MOSUNNY   65  45  48 S13       29.99F
SANFORD        MOSUNNY   64  48  55 E7        29.99F
BAR HARBOR     MOSUNNY   64  45  48 S10       29.96F
WISCASSET      MOSUNNY   68  45  43 S8        29.99F
ROCKLAND       PTSUNNY   66  46  48 S9        29.97S
FRYEBURG       PTSUNNY   68  41  37 VRB5      29.98F
LEWISTONAUBURN MOSUNNY   64  43  45 W5        29.98F
AUGUSTA        MOSUNNY   64  42  44 W6        29.98S
WATERVILLE     SUNNY     66  43  42 W9        29.92F
BANGOR         MOSUNNY   67  42  40 VRB3      29.96F
GREENVILLE       N/A     59  44  57 CALM      29.93F
MILLINOCKET    SUNNY     65  42  43 SW7       29.94F
HOULTON        MOSUNNY   65  44  46 W10G17    29.90F
PRESQUE ISLE   PTSUNNY   55  43  62 N9        29.93F
FRENCHVILLE    PTSUNNY   51  32  48 W8        29.94S
CARIBOU        CLOUDY    54  41  61 N8        29.93F
$$

NHZ002-005-008-009-011-012-014-171800-
NEW HAMPSHIRE

CITY           SKY/WX    TMP DP  RH WIND       PRES   REMARKS
PORTSMOUTH     MOSUNNY   69  46  43 S3        29.97F
ROCHESTER      MOSUNNY   67  41  38 CALM      29.98F
NASHUA           N/A     67  45  45 CALM      30.00F
MANCHESTER     MOSUNNY   65  41  41 S3        29.98F
CONCORD          N/A     68  44  42 MISG      29.99F
LACONIA        SUNNY     64  43  45 W9        29.97F
PLYMOUTH       FAIR      64  50  59 CALM      29.98F
BERLIN         PTSUNNY   62  43  49 MISG      29.98F
WHITEFIELD     SUNNY     62  42  47 VRB3      29.98F
JAFFREY        MOSUNNY   61  41  47 VRB5      30.01F
LEBANON        MOSUNNY   64  40  41 CALM      29.98F
MT WASHINGTON  MOSUNNY   39  32  75 SW5         N/A
$$

VTZ005-007-008-171800-
VERMONT

CITY           SKY/WX    TMP DP  RH WIND       PRES   REMARKS
ST JOHNSBURY     N/A     61  43  51 MISG      29.96F
MONTPELIER     PTSUNNY   62  45  53 VRB6      30.02F
BURLINGTON     MOSUNNY   65  42  43 VRB6      29.98F
$$

MAZ007-012-024-CTZ003-RIZ002-NYZ038-NYZ072-171800-
SOUTHERN NEW ENGLAND AND NY

CITY           SKY/WX    TMP DP  RH WIND       PRES   REMARKS
BOSTON         MOSUNNY   68  46  45 E7        29.98F
WORCESTER      SUNNY     63  41  44 SW12      30.01F
NANTUCKET      MOSUNNY   69  55  60 S15       29.99F
PROVIDENCE     MOSUNNY   71  42  35 NW7       29.99F
HARTFORD       MOSUNNY   69  43  38 W7        30.00F
ALBANY         PTSUNNY   63  45  51 NW5       30.02F
NEW YORK CITY  MOSUNNY   69  40  34 NW5       30.02F
$$

ANZ081-ANZ082-ANZ150-NHZ014-MEZ023>029-171800-
COASTAL MARINE OBSERVATIONS

STATION/POSITION TIME  TEMP    WIND        PRES    WAVE
                       AIR SEA DIR/SP/G            HT/PER
                 (UTC) (F)     (DEG/KT/KT) (MB)    (FT/S)
MATINICUS ROCK   1700          210/  5/  6 1015.2F
PORTLAND WX BUOY 1650   59 62  170/  2/  2 1015.7F   2/14
WELLS            1600   62 59  170/  6/  7 1014.9F
ISLE OF SHOALS   1700   59     140/  2/  3 1015.0F
JEFFREYS LEDGE   1621      63                N/A     2/14
CASHES LEDGE BUO 1650   61 64              1015.5F   3/14
$$

.............KEY..............
   WCI - WIND CHILL
   TC  - TEMPERATURE IN CELSIUS
   VSB - VISIBILITY IN MILES
   HX  - HEAT INDEX
   FAIR- INDICATES FEW OR NO CLOUDS BELOW 12,000 FT, WITH NO
         SIGNIFICANT WEATHER AND/OR OBSTRUCTIONS TO VISIBILITY.





USA.gov is the U.S. government's official web portal to all federal, state and local government web resources and services.